Tracking 29892 objects as of 21-Nov-2024
HD Live streaming from Space Station
objects crossing your sky now

STARLINK-2641

Track STARLINK-2641 now!
10-day predictions
STARLINK-2641 is classified as:


NORAD ID: 48369
Int'l Code: 2021-038S
Perigee: 553.2 km
Apogee: 555.5 km
Inclination: 53.1 °
Period: 95.6 minutes
Semi major axis: 6925 km
RCS: Unknown
Launch date: May 4, 2021
Source: United States (US)
Launch site: AIR FORCE EASTERN TEST RANGE (AFETR)
Your satellite tracking list
Your tracking list is empty




NASA's NSSDC Master Catalog

Two Line Element Set (TLE):
1 48369U 21038S   24325.38860793  .00001192  00000-0  98894-4 0  9999
2 48369  53.0536 320.8336 0001672  92.4094 267.7087 15.06398889195675
Source of the keplerian elements: AFSPC